This is the latest recevied weather packets stored in our database for station/object KJ5IIV. If no packets are shown the sender has not sent any weather packets the latest 10 day(s).
| Time | Temp. | Humidity | Pressure | Rain* | Wind** | Luminosity | Snow |
|---|---|---|---|---|---|---|---|
| 1777933082 | 26.67° C | 47% | 1008.7 hPa | 0 mm | - | 130 W/m² | - |
| 1777932778 | 26.67° C | 47% | 1008.8 hPa | 0 mm | - | 236 W/m² | - |
| 1777932475 | 27.22° C | 45% | 1008.8 hPa | 0 mm | - | 153 W/m² | - |
| 1777932172 | 27.22° C | 46% | 1008.9 hPa | 0 mm | - | 415 W/m² | - |
| 1777931869 | 27.22° C | 46% | 1008.9 hPa | 0 mm | - | 427 W/m² | - |
| 1777931566 | 27.22° C | 45% | 1009 hPa | 0 mm | - | 414 W/m² | - |
| 1777931262 | 27.78° C | 45% | 1009.2 hPa | 0 mm | - | 370 W/m² | - |
| 1777930958 | 27.78° C | 43% | 1009.2 hPa | 0 mm | - | 506 W/m² | - |
| 1777930655 | 27.78° C | 46% | 1009.3 hPa | 0 mm | - | 569 W/m² | - |
| 1777930352 | 27.78° C | 46% | 1009.1 hPa | 0 mm | - | 539 W/m² | - |
| 1777930049 | 27.78° C | 46% | 1009.2 hPa | 0 mm | - | 435 W/m² | - |
| 1777929745 | 27.22° C | 45% | 1009.4 hPa | 0 mm | - | 623 W/m² | - |
| 1777929443 | 27.78° C | 43% | 1009.7 hPa | 0 mm | - | 602 W/m² | - |
| 1777929139 | 27.78° C | 45% | 1009.6 hPa | 0 mm | - | 570 W/m² | - |
| 1777928837 | 27.78° C | 44% | 1009.9 hPa | 0 mm | - | 517 W/m² | - |
| 1777928533 | 27.78° C | 44% | 1009.9 hPa | 0 mm | - | 611 W/m² | - |
| 1777928230 | 27.78° C | 44% | 1010 hPa | 0 mm | - | 684 W/m² | - |
| 1777927928 | 27.78° C | 44% | 1010.1 hPa | 0 mm | - | 727 W/m² | - |
| 1777927626 | 27.78° C | 46% | 1010.3 hPa | 0 mm | - | 611 W/m² | - |
| 1777927325 | 27.78° C | 44% | 1010.5 hPa | 0 mm | - | 742 W/m² | - |
| 1777927023 | 28.33° C | 44% | 1010.6 hPa | 0 mm | - | 595 W/m² | - |
| 1777926721 | 28.33° C | 43% | 1010.7 hPa | 0 mm | - | 813 W/m² | - |
| 1777926420 | 27.78° C | 42% | 1010.8 hPa | 0 mm | - | 738 W/m² | - |
| 1777926118 | 27.78° C | 43% | 1010.8 hPa | 0 mm | - | 827 W/m² | - |
| 1777925814 | 27.78° C | 45% | 1011 hPa | 0 mm | - | 694 W/m² | - |
* Rain latest hour (hover to see other rain measurements)
** Current wind speed in m/s (hover to see current wind gust speed)